Location: Saint-Restitut
(44.3351°N, 4.7915°E)
Time: 12:59:30
(UTC+00:00)

Okean O Rocket - Pass Details

Date: 03 February 2023
Orbit: 621 x 643 km, 98.2° (Epoch: 19 March)

Event Time Altitude Azimuth Distance (km) Brightness Sun altitude
Rises 19:14:02 0° 179° (S) 2,904 5.0 -25.5°
Reaches altitude 10° 19:16:16 10° 185° (S) 2,005 4.2 -25.9°
Maximum altitude 19:20:30 49° 260° (W) 822 2.5 -26.7°
Drops below altitude 10° 19:24:48 10° 336° (NNW) 2,035 4.5 -27.4°
Sets 19:27:06 0° 342° (NNW) 2,952 5.3 -27.8°
